| Date | Time | Temp. (oF) | Dew Point (oF) | Rel. Hum. (%) | Press. (in.) | Wind Dir. | Wind Speed (mph) | Hourly Rainfall (in.) |
|
|---|---|---|---|---|---|---|---|---|---|
| 1 | 11/30 | 00:00 | 33 | 24 | 72 | 29.99 | S | 5 | 0.00 |
| 2 | 11/29 | 23:00 | 34 | 25 | 70 | 30.00 | SSW | 5 | 0.00 |
| 3 | 11/29 | 22:00 | 35 | 26 | 71 | 29.99 | SSW | 4 | 0.00 |
| 4 | 11/29 | 21:00 | 35 | 25 | 69 | 29.98 | SSW | 6 | 0.00 |
| 5 | 11/29 | 20:00 | 36 | 27 | 70 | 29.98 | WSW | 10 | 0.00 |
| 6 | 11/29 | 19:00 | 37 | 27 | 67 | 29.96 | WNW | 7 | 0.00 |
| 7 | 11/29 | 18:00 | 38 | 26 | 64 | 29.94 | SW | 5 | 0.00 |
| 8 | 11/29 | 17:00 | 39 | 27 | 63 | 29.89 | WSW | 10 | 0.00 |
| 9 | 11/29 | 16:00 | 40 | 28 | 63 | 29.85 | W | 11 | 0.00 |
| 10 | 11/29 | 15:00 | 40 | 28 | 62 | 29.81 | W | 11 | 0.00 |
| 11 | 11/29 | 14:00 | 40 | 27 | 61 | 29.77 | WNW | 16 | 0.00 |
| 12 | 11/29 | 13:00 | 41 | 27 | 58 | 29.73 | SW | 10 | 0.00 |
| 13 | 11/29 | 12:00 | 41 | 27 | 59 | 29.69 | SSW | 7 | 0.00 |
| 14 | 11/29 | 11:00 | 40 | 28 | 62 | 29.67 | W | 10 | 0.00 |
| 15 | 11/29 | 10:00 | 39 | 28 | 67 | 29.66 | WSW | 11 | 0.00 |
| 16 | 11/29 | 09:00 | 37 | 27 | 69 | 29.64 | SSW | 11 | 0.00 |
| 17 | 11/29 | 08:00 | 35 | 27 | 73 | 29.62 | SW | 10 | 0.00 |
| 18 | 11/29 | 07:00 | 34 | 26 | 73 | 29.60 | SSW | 9 | 0.00 |
| 19 | 11/29 | 06:00 | 34 | 25 | 72 | 29.58 | SW | 6 | 0.00 |
| 20 | 11/29 | 05:00 | 35 | 26 | 72 | 29.55 | WNW | 12 | 0.00 |
| 21 | 11/29 | 04:00 | 36 | 27 | 72 | 29.52 | SW | 10 | 0.00 |
| 22 | 11/29 | 03:00 | 38 | 29 | 72 | 29.50 | W | 8 | 0.00 |
| 23 | 11/29 | 02:00 | 40 | 33 | 77 | 29.47 | SE | 9 | 0.00 |
| 24 | 11/29 | 01:00 | 41 | 34 | 77 | 29.46 | WSW | 11 | 0.00 |